Location: Sungai Anya
(2.6167°N, 114.0500°E)
Time: 19:47:02
(UTC+00:00)

Cosmos 1939 Rocket - Pass Details

Date: 19 October 2021
Orbit: 531 x 583 km, 97.4° (Epoch: 07 December)

Event Time Altitude Azimuth Distance (km) Brightness Sun altitude
Rises 10:22:05 0° 174° (S) 2,670 6.4 -3.7°
Reaches altitude 10° 10:24:12 10° 177° (S) 1,779 5.5 -4.3°
Maximum altitude 10:27:59 63° 258° (WSW) 594 3.4 -5.2°
Drops below altitude 10° 10:31:48 10° 341° (NNW) 1,784 5.6 -6.1°
Sets 10:33:56 0° 344° (NNW) 2,678 6.4 -6.7°
